Zurück zum Katalog

THORAD AGENA D R/B

AktivLEO
NORAD 5679·ROCKET BODY·🇺🇸 United States

Gestartet Dec 14, 1971 von Vandenberg Space Force Base

Loading…

Nächste Überflüge (nächste 24 Stunden)

TLE

AktuellSource: Space-Track

Epoche: Sep 14, 2026, 12:17 UTC

1  5679U 71110B   26257.51183565  .00000013  00000-0  56382-4 0  9995
2  5679  69.9972 171.6720 0012967 353.4872   6.6057 13.85694038381735

Verfolge THORAD AGENA D R/B in Echtzeit mit AllMySat

Download on the App Store